Regional Weather Roundup
Issued by NWS State College, PA

Home | Current Version | Previous Version | Graphics & Text | Print | Product List | Glossary Off
Versions: 1 2 3 4 5 6 7 8 9 10 11 12 13 14 15 16 17 18 19 20 21 22 23 24 25 26 27 28 29 30 31 32 33 34 35 36 37 38 39 40 41 42 43 44 45 46 47 48 49 50

000
ASUS41 KCTP 251810
RWRCTP

REGIONAL WEATHER ROUNDUP
NATIONAL WEATHER SERVICE STATE COLLEGE PA
200 PM EDT MON MAY 25 2015

Note: "fair" indicates few or no clouds below 12,000 feet with no
significant weather and/or obstructions to visibility.

* = STATION THAT DOES NOT REPORT PRECIPITATION /E.G. RAIN...SNOW...ETC/
    THUNDER OR FOG.

PAZ002>004-007>009-013>016-020>023-029>032-251900-
WESTERN PENNSYLVANIA

CITY           SKY/WX    TMP DP  RH WIND       PRES   REMARKS
ERIE           PTSUNNY   82  59  45 S20G28    30.06F
MEADVILLE      CLOUDY    77  58  51 SW15      30.13S
FRANKLIN*      CLOUDY    79  57  47 S15       30.16F
NEW CASTLE     MOCLDY    83  61  47 SW15      30.14F
BEAVER COUNTY  NOT AVBL
BUTLER*        MOSUNNY   82  57  42 SW14G21   30.18S
PITTSBURGH INT PTSUNNY   81  56  42 SW8       30.16F
PITTSBURGH     MOSUNNY   80  53  39 SW8       30.16F
INDIANA*       SUNNY     82  59  44 W9G17     30.21F
LATROBE        MOSUNNY   82  57  42 W14       30.20F
WASHINGTON CO* MOSUNNY   81  59  47 S10G18    30.20S
$$

PAZ004>006-010>012-017>019-024>028-033>037-041-042-045-046-049>053-251900-
CENTRAL PENNSYLVANIA

CITY           SKY/WX    TMP DP  RH WIND       PRES   REMARKS
BRADFORD       MOSUNNY   79  54  41 SW13G20   30.17S
DUBOIS         MOSUNNY   82  55  39 SW12G21   30.17F
CLEARFIELD     SUNNY     83  53  35 SW13G22   30.17F
JOHNSTOWN      MOSUNNY   78  53  41 MISG      30.22F
ALTOONA        MOSUNNY   83  55  38 S10       30.20F
STATE COLLEGE  SUNNY     84  55  37 S10G17    30.17F
WILLIAMSPORT   MOSUNNY   85  56  37 S12G22    30.12F
SELINSGROVE    SUNNY     84  56  38 S9G18     30.16F
FT INDIANTOWN  MOSUNNY   83  58  41 SW10      30.18F
CAPITAL CITY   SUNNY     83  56  39 S10G22    30.18F
HARRISBURG     PTSUNNY   85  58  39 S12       30.18F
YORK           MOSUNNY   81  60  48 VRB6      30.20F
$$

PAZ038>040-043-044-047-048-054-055-060>062-067>071-251900-
EASTERN PENNSYLVANIA

CITY           SKY/WX    TMP DP  RH WIND       PRES   REMARKS
SCRANTON       SUNNY     85  54  34 VRB3G20   30.16F
MOUNT POCONO   SUNNY     80  52  37 S14G24    30.24F
ALLENTOWN      SUNNY     87  54  32 SW13G22   30.18F
QUAKERTOWN*    CLEAR     84  54  34 S10G22    30.22S
READING        SUNNY     88  52  29 SW17G23   30.17F
LANCASTER      SUNNY     83  58  42 S12G21    30.19F
COATESVILLE    CLEAR     81  57  44 SW8       30.23F
POTTSTOWN      SUNNY     84  53  34 SW14G23   30.23F
BLUE BELL      SUNNY     86  55  35 SW14G22   30.21F
DOYLESTOWN     SUNNY     81  55  40 S12G23    30.20F
WILLOW GROVE   NOT AVBL
NORTH PHILA    SUNNY     86  52  30 SW20G26   30.23F
PHILADELPHIA   MOSUNNY   86  54  33 SW17      30.22F
$$


USA.gov is the U.S. government's official web portal to all federal, state and local government web resources and services.